Terminal Aerodrome Forecast
Issued by NWS

Home | Current Version | Previous Version | Text Only | Print | Product List | Glossary On
Versions: 1 2 3 4 5 6 7 8 9 10 11 12 13 14
000
FTUS45 KRIW 251100
TAFCPR
TAF
KCPR 251121Z 2512/2612 22011KT P6SM SCT100
     FM251400 23014G24KT P6SM SCT080 BKN200
     FM252200 36011KT P6SM VCSH SCT040 BKN080
     FM260100 04014KT P6SM VCSH BKN030
     FM260600 04008KT 6SM -RA BR SCT008 OVC015=

USA.gov is the U.S. government's official web portal to all federal, state and local government web resources and services.